Wetterdaten: Sonntag, 30.01.2011
Datum Zeit Temp. A. Feuchte A. Luftdruck Regen Wind Richtung Richtung Sonnenschein UV Solar Windben
30.01.2011 00:00 -5,2 C 88 % 1020,9 hPa 0,0 mm 0,0 km/h (0 Bft) N-NO 22 0 min 0 UV-I 0 W/m 3,2 km/h (1 Bft)
30.01.2011 00:10 -5,2 C 89 % 1020,9 hPa 0,0 mm 1,6 km/h (1 Bft) N-NO 22 0 min 0 UV-I 0 W/m 4,8 km/h (1 Bft)
30.01.2011 00:20 -5,1 C 89 % 1021,0 hPa 0,0 mm 0,0 km/h (0 Bft) N 360 0 min 0 UV-I 0 W/m 6,4 km/h (2 Bft)
30.01.2011 00:30 -5,2 C 88 % 1020,9 hPa 0,0 mm 0,0 km/h (0 Bft) N 360 0 min 0 UV-I 0 W/m 1,6 km/h (1 Bft)
30.01.2011 00:40 -5,4 C 88 % 1021,2 hPa 0,0 mm 0,0 km/h (0 Bft) N 360 0 min 0 UV-I 0 W/m 3,2 km/h (1 Bft)
30.01.2011 00:50 -5,6 C 88 % 1021,0 hPa 0,0 mm 0,0 km/h (0 Bft) N-NO 22 0 min 0 UV-I 0 W/m 1,6 km/h (1 Bft)
30.01.2011 01:00 -5,6 C 88 % 1021,1 hPa 0,0 mm 0,0 km/h (0 Bft) N-NO 22 0 min 0 UV-I 0 W/m 3,2 km/h (1 Bft)
30.01.2011 01:10 -5,6 C 89 % 1021,1 hPa 0,0 mm 0,0 km/h (0 Bft) N-NO 22 0 min 0 UV-I 0 W/m 6,4 km/h (2 Bft)
30.01.2011 01:20 -5,6 C 88 % 1020,7 hPa 0,0 mm 0,0 km/h (0 Bft) N-NO 22 0 min 0 UV-I 0 W/m 1,6 km/h (1 Bft)
30.01.2011 01:30 -5,7 C 88 % 1020,9 hPa 0,0 mm 0,0 km/h (0 Bft) N-NO 22 0 min 0 UV-I 0 W/m 1,6 km/h (1 Bft)
30.01.2011 01:40 -5,9 C 88 % 1020,8 hPa 0,0 mm 0,0 km/h (0 Bft) N 0 0 min 0 UV-I 0 W/m 0,0 km/h (0 Bft)
30.01.2011 01:50 -6,1 C 88 % 1020,7 hPa 0,0 mm 0,0 km/h (0 Bft) N 0 0 min 0 UV-I 0 W/m 0,0 km/h (0 Bft)
30.01.2011 02:00 -6,3 C 88 % 1020,8 hPa 0,0 mm 0,0 km/h (0 Bft) N 0 0 min 0 UV-I 0 W/m 0,0 km/h (0 Bft)
30.01.2011 02:10 -6,4 C 89 % 1020,5 hPa 0,0 mm 0,0 km/h (0 Bft) N-NO 22 0 min 0 UV-I 0 W/m 1,6 km/h (1 Bft)
30.01.2011 02:20 -6,5 C 88 % 1020,5 hPa 0,0 mm 0,0 km/h (0 Bft) N-NO 22 0 min 0 UV-I 0 W/m 1,6 km/h (1 Bft)
30.01.2011 02:30 -6,6 C 89 % 1020,4 hPa 0,0 mm 0,0 km/h (0 Bft) N 0 0 min 0 UV-I 0 W/m 0,0 km/h (0 Bft)
30.01.2011 02:40 -6,7 C 89 % 1020,3 hPa 0,0 mm 0,0 km/h (0 Bft) N-NO 22 0 min 0 UV-I 0 W/m 1,6 km/h (1 Bft)
30.01.2011 02:50 -6,6 C 89 % 1020,0 hPa 0,0 mm 0,0 km/h (0 Bft) N-NO 22 0 min 0 UV-I 0 W/m 3,2 km/h (1 Bft)
30.01.2011 03:00 -6,4 C 89 % 1020,0 hPa 0,0 mm 0,0 km/h (0 Bft) N-NO 22 0 min 0 UV-I 0 W/m 1,6 km/h (1 Bft)
30.01.2011 03:10 -6,4 C 89 % 1020,2 hPa 0,0 mm 0,0 km/h (0 Bft) N-NO 22 0 min 0 UV-I 0 W/m 1,6 km/h (1 Bft)
30.01.2011 03:20 -6,5 C 89 % 1020,3 hPa 0,0 mm 0,0 km/h (0 Bft) N-NO 22 0 min 0 UV-I 0 W/m 1,6 km/h (1 Bft)
30.01.2011 03:30 -6,7 C 89 % 1020,1 hPa 0,0 mm 0,0 km/h (0 Bft) N-NO 22 0 min 0 UV-I 0 W/m 1,6 km/h (1 Bft)
30.01.2011 03:40 -6,7 C 89 % 1020,2 hPa 0,0 mm 0,0 km/h (0 Bft) N 0 0 min 0 UV-I 0 W/m 0,0 km/h (0 Bft)
30.01.2011 03:50 -6,8 C 89 % 1020,0 hPa 0,0 mm 0,0 km/h (0 Bft) N 0 0 min 0 UV-I 0 W/m 0,0 km/h (0 Bft)
30.01.2011 04:00 -6,8 C 89 % 1020,0 hPa 0,0 mm 0,0 km/h (0 Bft) N-NO 22 0 min 0 UV-I 0 W/m 1,6 km/h (1 Bft)
30.01.2011 04:10 -6,8 C 89 % 1020,0 hPa 0,0 mm 0,0 km/h (0 Bft) N-NO 22 0 min 0 UV-I 0 W/m 1,6 km/h (1 Bft)
30.01.2011 04:20 -7,1 C 89 % 1020,0 hPa 0,0 mm 0,0 km/h (0 Bft) N-NO 22 0 min 0 UV-I 0 W/m 1,6 km/h (1 Bft)
30.01.2011 04:30 -7,1 C 89 % 1020,2 hPa 0,0 mm 0,0 km/h (0 Bft) N-NO 22 0 min 0 UV-I 0 W/m 1,6 km/h (1 Bft)
30.01.2011 04:40 -7,2 C 89 % 1020,4 hPa 0,0 mm 0,0 km/h (0 Bft) N-NO 22 0 min 0 UV-I 0 W/m 4,8 km/h (1 Bft)
30.01.2011 04:50 -7,2 C 89 % 1020,5 hPa 0,0 mm 0,0 km/h (0 Bft) N 0 0 min 0 UV-I 0 W/m 0,0 km/h (0 Bft)
30.01.2011 05:00 -7,2 C 89 % 1020,5 hPa 0,0 mm 0,0 km/h (0 Bft) N-NO 22 0 min 0 UV-I 0 W/m 1,6 km/h (1 Bft)
30.01.2011 05:10 -7,2 C 89 % 1020,6 hPa 0,0 mm 0,0 km/h (0 Bft) N-NO 22 0 min 0 UV-I 0 W/m 1,6 km/h (1 Bft)
30.01.2011 05:20 -7,3 C 89 % 1020,6 hPa 0,0 mm 0,0 km/h (0 Bft) N-NO 22 0 min 0 UV-I 0 W/m 1,6 km/h (1 Bft)
30.01.2011 05:30 -7,3 C 89 % 1020,5 hPa 0,0 mm 0,0 km/h (0 Bft) N-NO 22 0 min 0 UV-I 0 W/m 3,2 km/h (1 Bft)
30.01.2011 05:40 -7,4 C 89 % 1020,3 hPa 0,0 mm 0,0 km/h (0 Bft) N-NO 22 0 min 0 UV-I 0 W/m 3,2 km/h (1 Bft)
30.01.2011 05:50 -7,4 C 89 % 1020,6 hPa 0,0 mm 0,0 km/h (0 Bft) N 0 0 min 0 UV-I 0 W/m 0,0 km/h (0 Bft)
30.01.2011 06:00 -7,5 C 89 % 1020,8 hPa 0,0 mm 0,0 km/h (0 Bft) N-NO 22 0 min 0 UV-I 0 W/m 1,6 km/h (1 Bft)
30.01.2011 06:10 -7,6 C 89 % 1020,6 hPa 0,0 mm 0,0 km/h (0 Bft) N-NO 22 0 min 0 UV-I 0 W/m 1,6 km/h (1 Bft)
30.01.2011 06:20 -7,7 C 89 % 1020,6 hPa 0,0 mm 0,0 km/h (0 Bft) N 0 0 min 0 UV-I 0 W/m 0,0 km/h (0 Bft)
30.01.2011 06:30 -7,7 C 89 % 1020,6 hPa 0,0 mm 0,0 km/h (0 Bft) N 0 0 min 0 UV-I 0 W/m 0,0 km/h (0 Bft)
30.01.2011 06:40 -7,8 C 89 % 1020,6 hPa 0,0 mm 0,0 km/h (0 Bft) N-NO 22 0 min 0 UV-I 0 W/m 1,6 km/h (1 Bft)
30.01.2011 06:50 -7,8 C 89 % 1020,5 hPa 0,0 mm 0,0 km/h (0 Bft) N 0 0 min 0 UV-I 0 W/m 0,0 km/h (0 Bft)
30.01.2011 07:00 -7,9 C 89 % 1020,8 hPa 0,0 mm 0,0 km/h (0 Bft) N 0 0 min 0 UV-I 0 W/m 0,0 km/h (0 Bft)
30.01.2011 07:10 -8,0 C 89 % 1020,8 hPa 0,0 mm 0,0 km/h (0 Bft) N 0 0 min 0 UV-I 0 W/m 0,0 km/h (0 Bft)
30.01.2011 07:20 -8,1 C 89 % 1020,7 hPa 0,0 mm 0,0 km/h (0 Bft) N 0 0 min 0 UV-I 0 W/m 0,0 km/h (0 Bft)
30.01.2011 07:30 -8,2 C 89 % 1020,8 hPa 0,0 mm 0,0 km/h (0 Bft) N 0 0 min 0 UV-I 0 W/m 0,0 km/h (0 Bft)
30.01.2011 07:40 -8,2 C 88 % 1021,0 hPa 0,0 mm 0,0 km/h (0 Bft) N 0 0 min 0 UV-I 0 W/m 0,0 km/h (0 Bft)
30.01.2011 07:50 -8,3 C 88 % 1021,1 hPa 0,0 mm 0,0 km/h (0 Bft) N 0 0 min 0 UV-I 0 W/m 0,0 km/h (0 Bft)
30.01.2011 08:00 -8,4 C 89 % 1021,2 hPa 0,0 mm 0,0 km/h (0 Bft) N-NO 19 0 min 0 UV-I 0 W/m 0,0 km/h (0 Bft)
30.01.2011 08:10 -8,4 C 88 % 1021,3 hPa 0,0 mm 0,0 km/h (0 Bft) N 0 0 min 0 UV-I 0 W/m 0,0 km/h (0 Bft)
30.01.2011 08:20 -8,5 C 88 % 1021,4 hPa 0,0 mm 0,0 km/h (0 Bft) N 0 0 min 0 UV-I 7 W/m 0,0 km/h (0 Bft)
30.01.2011 08:30 -8,6 C 88 % 1021,3 hPa 0,0 mm 0,0 km/h (0 Bft) N 0 0 min 0 UV-I 12 W/m 0,0 km/h (0 Bft)
30.01.2011 08:40 -8,7 C 88 % 1021,4 hPa 0,0 mm 0,0 km/h (0 Bft) N 0 0 min 0 UV-I 19 W/m 0,0 km/h (0 Bft)
30.01.2011 08:50 -8,7 C 88 % 1021,3 hPa 0,0 mm 0,0 km/h (0 Bft) N 0 0 min 0 UV-I 32 W/m 0,0 km/h (0 Bft)
30.01.2011 09:00 -8,6 C 89 % 1021,5 hPa 0,0 mm 0,0 km/h (0 Bft) N 0 0 min 0 UV-I 32 W/m 0,0 km/h (0 Bft)
30.01.2011 09:10 -8,4 C 89 % 1021,4 hPa 0,0 mm 0,0 km/h (0 Bft) N 0 0 min 0 UV-I 42 W/m 0,0 km/h (0 Bft)
30.01.2011 09:20 -8,3 C 89 % 1021,6 hPa 0,0 mm 0,0 km/h (0 Bft) N 0 0 min 0 UV-I 47 W/m 0,0 km/h (0 Bft)
30.01.2011 09:30 -7,9 C 89 % 1021,6 hPa 0,0 mm 0,0 km/h (0 Bft) N 0 0 min 0 UV-I 53 W/m 0,0 km/h (0 Bft)
30.01.2011 09:40 -7,6 C 90 % 1021,6 hPa 0,0 mm 0,0 km/h (0 Bft) N-NO 22 0 min 0 UV-I 56 W/m 1,6 km/h (1 Bft)
30.01.2011 09:50 -7,1 C 90 % 1021,5 hPa 0,0 mm 0,0 km/h (0 Bft) N-NO 22 0 min 0 UV-I 65 W/m 1,6 km/h (1 Bft)
30.01.2011 10:00 -6,6 C 90 % 1021,5 hPa 0,0 mm 0,0 km/h (0 Bft) N 0 10 min 0 UV-I 125 W/m 0,0 km/h (0 Bft)
30.01.2011 10:10 -5,8 C 90 % 1021,3 hPa 0,0 mm 0,0 km/h (0 Bft) N 0 10 min 0 UV-I 160 W/m 0,0 km/h (0 Bft)
30.01.2011 10:20 -5,2 C 89 % 1021,3 hPa 0,0 mm 0,0 km/h (0 Bft) N 0 10 min 1 UV-I 192 W/m 0,0 km/h (0 Bft)
30.01.2011 10:30 -4,6 C 88 % 1021,4 hPa 0,0 mm 0,0 km/h (0 Bft) N-NO 22 10 min 1 UV-I 204 W/m 3,2 km/h (1 Bft)
30.01.2011 10:40 -4,1 C 87 % 1021,5 hPa 0,0 mm 0,0 km/h (0 Bft) N-NO 22 10 min 1 UV-I 221 W/m 3,2 km/h (1 Bft)
30.01.2011 10:50 -3,7 C 87 % 1021,5 hPa 0,3 mm 0,0 km/h (0 Bft) N-NO 22 10 min 1 UV-I 297 W/m 1,6 km/h (1 Bft)
30.01.2011 11:00 -3,2 C 86 % 1021,3 hPa 0,0 mm 0,0 km/h (0 Bft) N-NO 22 10 min 1 UV-I 330 W/m 3,2 km/h (1 Bft)
30.01.2011 11:10 -2,8 C 86 % 1021,4 hPa 0,0 mm 0,0 km/h (0 Bft) N-NO 22 10 min 1 UV-I 325 W/m 3,2 km/h (1 Bft)
30.01.2011 11:20 -2,4 C 86 % 1021,3 hPa 0,0 mm 0,0 km/h (0 Bft) N-NO 22 10 min 1 UV-I 330 W/m 1,6 km/h (1 Bft)
30.01.2011 11:30 -2,3 C 86 % 1021,3 hPa 0,0 mm 0,0 km/h (0 Bft) N-NO 22 10 min 1 UV-I 338 W/m 1,6 km/h (1 Bft)
30.01.2011 11:40 -1,7 C 85 % 1021,3 hPa 0,0 mm 0,0 km/h (0 Bft) N-NO 22 10 min 1 UV-I 350 W/m 1,6 km/h (1 Bft)
30.01.2011 11:50 -1,3 C 84 % 1021,1 hPa 0,0 mm 0,0 km/h (0 Bft) N-NO 22 10 min 1 UV-I 352 W/m 3,2 km/h (1 Bft)
30.01.2011 12:00 -1,3 C 83 % 1021,0 hPa 0,0 mm 0,0 km/h (0 Bft) N-NO 22 10 min 1 UV-I 380 W/m 1,6 km/h (1 Bft)
30.01.2011 12:10 -0,6 C 82 % 1021,0 hPa 0,0 mm 0,0 km/h (0 Bft) N 0 10 min 1 UV-I 381 W/m 0,0 km/h (0 Bft)
30.01.2011 12:20 -0,2 C 81 % 1021,0 hPa 0,0 mm 0,0 km/h (0 Bft) N-NW 337 10 min 1 UV-I 390 W/m 4,8 km/h (1 Bft)
30.01.2011 12:30 -0,2 C 81 % 1020,9 hPa 0,0 mm 1,6 km/h (1 Bft) N-NW 337 10 min 1 UV-I 383 W/m 4,8 km/h (1 Bft)
30.01.2011 12:40 -0,1 C 80 % 1020,9 hPa 0,0 mm 1,6 km/h (1 Bft) NW 315 10 min 1 UV-I 380 W/m 6,4 km/h (2 Bft)
30.01.2011 12:50 0,3 C 80 % 1020,9 hPa 0,0 mm 1,6 km/h (1 Bft) N-NW 337 10 min 1 UV-I 383 W/m 4,8 km/h (1 Bft)
30.01.2011 13:00 0,3 C 80 % 1020,9 hPa 0,0 mm 1,6 km/h (1 Bft) NW 315 10 min 1 UV-I 383 W/m 6,4 km/h (2 Bft)
30.01.2011 13:10 0,6 C 78 % 1020,8 hPa 0,0 mm 1,6 km/h (1 Bft) W-NW 292 10 min 1 UV-I 383 W/m 6,4 km/h (2 Bft)
30.01.2011 13:20 1,1 C 77 % 1020,8 hPa 0,0 mm 0,0 km/h (0 Bft) W-NW 292 10 min 1 UV-I 383 W/m 4,8 km/h (1 Bft)
30.01.2011 13:30 1,3 C 77 % 1020,7 hPa 0,0 mm 0,0 km/h (0 Bft) W-NW 292 10 min 1 UV-I 378 W/m 3,2 km/h (1 Bft)
30.01.2011 13:40 1,4 C 76 % 1020,6 hPa 0,0 mm 0,0 km/h (0 Bft) W-NW 292 10 min 1 UV-I 373 W/m 3,2 km/h (1 Bft)
30.01.2011 13:50 1,8 C 72 % 1020,5 hPa 0,0 mm 0,0 km/h (0 Bft) W-NW 292 10 min 1 UV-I 366 W/m 3,2 km/h (1 Bft)
30.01.2011 14:00 2,0 C 72 % 1020,4 hPa 0,0 mm 0,0 km/h (0 Bft) W-NW 292 10 min 1 UV-I 353 W/m 3,2 km/h (1 Bft)
30.01.2011 14:10 2,3 C 69 % 1020,4 hPa 0,0 mm 0,0 km/h (0 Bft) W-NW 292 10 min 1 UV-I 341 W/m 3,2 km/h (1 Bft)
30.01.2011 14:20 2,5 C 67 % 1020,4 hPa 0,0 mm 1,6 km/h (1 Bft) O-NO 67 10 min 1 UV-I 330 W/m 8,0 km/h (2 Bft)
30.01.2011 14:30 2,6 C 64 % 1020,4 hPa 0,0 mm 1,6 km/h (1 Bft) O 90 10 min 1 UV-I 316 W/m 4,8 km/h (1 Bft)
30.01.2011 14:40 2,4 C 61 % 1020,5 hPa 0,0 mm 3,2 km/h (1 Bft) O 90 10 min 1 UV-I 267 W/m 11,3 km/h (2 Bft)
30.01.2011 14:50 2,3 C 62 % 1020,4 hPa 0,0 mm 1,6 km/h (1 Bft) O-SO 112 10 min 1 UV-I 155 W/m 8,0 km/h (2 Bft)
30.01.2011 15:00 2,3 C 65 % 1020,6 hPa 0,0 mm 1,6 km/h (1 Bft) SO 135 0 min 1 UV-I 134 W/m 6,4 km/h (2 Bft)
30.01.2011 15:10 2,0 C 66 % 1020,6 hPa 0,0 mm 1,6 km/h (1 Bft) O 90 10 min 1 UV-I 174 W/m 6,4 km/h (2 Bft)
30.01.2011 15:20 1,9 C 67 % 1020,5 hPa 0,0 mm 1,6 km/h (1 Bft) O 90 10 min 1 UV-I 171 W/m 8,0 km/h (2 Bft)
30.01.2011 15:30 1,9 C 67 % 1020,5 hPa 0,0 mm 1,6 km/h (1 Bft) O-SO 112 10 min 0 UV-I 160 W/m 8,0 km/h (2 Bft)
30.01.2011 15:40 1,8 C 68 % 1020,4 hPa 0,0 mm 3,2 km/h (1 Bft) O 90 10 min 0 UV-I 160 W/m 9,7 km/h (2 Bft)
30.01.2011 15:50 1,7 C 69 % 1020,4 hPa 0,0 mm 1,6 km/h (1 Bft) O 90 0 min 0 UV-I 51 W/m 8,0 km/h (2 Bft)
30.01.2011 16:00 1,5 C 70 % 1020,4 hPa 0,0 mm 1,6 km/h (1 Bft) O 90 0 min 0 UV-I 40 W/m 4,8 km/h (1 Bft)
30.01.2011 16:10 1,3 C 72 % 1020,5 hPa 0,0 mm 0,0 km/h (0 Bft) O 90 0 min 0 UV-I 39 W/m 4,8 km/h (1 Bft)
30.01.2011 16:20 1,2 C 73 % 1020,5 hPa 0,0 mm 1,6 km/h (1 Bft) O 90 0 min 0 UV-I 35 W/m 6,4 km/h (2 Bft)
30.01.2011 16:30 1,0 C 75 % 1020,6 hPa 0,0 mm 1,6 km/h (1 Bft) O 90 0 min 0 UV-I 30 W/m 8,0 km/h (2 Bft)
30.01.2011 16:40 0,8 C 76 % 1020,7 hPa 0,0 mm 1,6 km/h (1 Bft) O-NO 67 0 min 0 UV-I 25 W/m 6,4 km/h (2 Bft)
30.01.2011 16:50 0,6 C 77 % 1020,7 hPa 0,0 mm 1,6 km/h (1 Bft) O-NO 67 10 min 0 UV-I 19 W/m 4,8 km/h (1 Bft)
30.01.2011 17:00 0,3 C 79 % 1020,8 hPa 0,0 mm 0,0 km/h (0 Bft) O-NO 67 0 min 0 UV-I 14 W/m 4,8 km/h (1 Bft)
30.01.2011 17:10 -0,1 C 79 % 1020,8 hPa 0,0 mm 1,6 km/h (1 Bft) O-NO 67 0 min 0 UV-I 9 W/m 4,8 km/h (1 Bft)
30.01.2011 17:20 -0,3 C 81 % 1020,9 hPa 0,0 mm 1,6 km/h (1 Bft) O-NO 67 0 min 0 UV-I 0 W/m 4,8 km/h (1 Bft)
30.01.2011 17:30 -0,5 C 81 % 1021,0 hPa 0,0 mm 1,6 km/h (1 Bft) O-NO 67 0 min 0 UV-I 0 W/m 4,8 km/h (1 Bft)
30.01.2011 17:40 -0,7 C 82 % 1021,0 hPa 0,0 mm 0,0 km/h (0 Bft) O-NO 67 0 min 0 UV-I 0 W/m 4,8 km/h (1 Bft)
30.01.2011 17:50 -1,0 C 83 % 1021,0 hPa 0,0 mm 0,0 km/h (0 Bft) O-NO 67 0 min 0 UV-I 0 W/m 4,8 km/h (1 Bft)
30.01.2011 18:00 -1,2 C 84 % 1021,2 hPa 0,0 mm 0,0 km/h (0 Bft) O-NO 67 0 min 0 UV-I 0 W/m 4,8 km/h (1 Bft)
30.01.2011 18:10 -1,3 C 84 % 1021,2 hPa 0,0 mm 0,0 km/h (0 Bft) O-NO 67 0 min 0 UV-I 0 W/m 4,8 km/h (1 Bft)
30.01.2011 18:20 -1,4 C 84 % 1021,4 hPa 0,0 mm 0,0 km/h (0 Bft) O-NO 67 0 min 0 UV-I 0 W/m 4,8 km/h (1 Bft)
30.01.2011 18:30 -1,6 C 85 % 1021,4 hPa 0,0 mm 1,6 km/h (1 Bft) O-NO 67 0 min 0 UV-I 0 W/m 3,2 km/h (1 Bft)
30.01.2011 18:40 -1,7 C 85 % 1021,4 hPa 0,0 mm 1,6 km/h (1 Bft) O-NO 67 0 min 0 UV-I 0 W/m 4,8 km/h (1 Bft)
30.01.2011 18:50 -1,7 C 85 % 1021,6 hPa 0,0 mm 0,0 km/h (0 Bft) O-NO 67 0 min 0 UV-I 0 W/m 6,4 km/h (2 Bft)
30.01.2011 19:00 -1,8 C 85 % 1021,6 hPa 0,0 mm 0,0 km/h (0 Bft) O-NO 67 0 min 0 UV-I 0 W/m 4,8 km/h (1 Bft)
30.01.2011 19:10 -2,0 C 86 % 1021,8 hPa 0,0 mm 0,0 km/h (0 Bft) O-NO 67 0 min 0 UV-I 0 W/m 4,8 km/h (1 Bft)
30.01.2011 19:20 -2,1 C 86 % 1021,9 hPa 0,0 mm 0,0 km/h (0 Bft) O-NO 67 0 min 0 UV-I 0 W/m 3,2 km/h (1 Bft)
30.01.2011 19:30 -2,3 C 86 % 1021,9 hPa 0,0 mm 0,0 km/h (0 Bft) O-NO 67 0 min 0 UV-I 0 W/m 3,2 km/h (1 Bft)
30.01.2011 19:40 -2,4 C 86 % 1021,9 hPa 0,0 mm 0,0 km/h (0 Bft) O-NO 67 0 min 0 UV-I 0 W/m 1,6 km/h (1 Bft)
30.01.2011 19:50 -2,5 C 86 % 1021,9 hPa 0,0 mm 0,0 km/h (0 Bft) O-NO 67 0 min 0 UV-I 0 W/m 1,6 km/h (1 Bft)
30.01.2011 20:00 -2,7 C 87 % 1021,9 hPa 0,0 mm 0,0 km/h (0 Bft) O-NO 67 0 min 0 UV-I 0 W/m 1,6 km/h (1 Bft)
30.01.2011 20:10 -2,8 C 87 % 1021,9 hPa 0,0 mm 0,0 km/h (0 Bft) O-NO 67 0 min 0 UV-I 0 W/m 1,6 km/h (1 Bft)
30.01.2011 20:20 -2,8 C 87 % 1021,8 hPa 0,0 mm 0,0 km/h (0 Bft) O-NO 67 0 min 0 UV-I 0 W/m 3,2 km/h (1 Bft)
30.01.2011 20:30 -2,9 C 87 % 1022,0 hPa 0,0 mm 0,0 km/h (0 Bft) O-NO 67 0 min 0 UV-I 0 W/m 1,6 km/h (1 Bft)
30.01.2011 20:40 -3,1 C 88 % 1022,2 hPa 0,0 mm 0,0 km/h (0 Bft) N 0 0 min 0 UV-I 0 W/m 0,0 km/h (0 Bft)
30.01.2011 20:50 -3,1 C 88 % 1022,0 hPa 0,0 mm 0,0 km/h (0 Bft) N 0 0 min 0 UV-I 0 W/m 0,0 km/h (0 Bft)
30.01.2011 21:00 -3,2 C 88 % 1022,1 hPa 0,0 mm 0,0 km/h (0 Bft) N 0 0 min 0 UV-I 0 W/m 0,0 km/h (0 Bft)
30.01.2011 21:10 -3,3 C 88 % 1022,1 hPa 0,0 mm 0,0 km/h (0 Bft) O-NO 67 0 min 0 UV-I 0 W/m 1,6 km/h (1 Bft)
30.01.2011 21:20 -3,4 C 88 % 1022,1 hPa 0,0 mm 0,0 km/h (0 Bft) O-NO 67 0 min 0 UV-I 0 W/m 3,2 km/h (1 Bft)
30.01.2011 21:30 -3,6 C 88 % 1022,1 hPa 0,0 mm 0,0 km/h (0 Bft) O-NO 67 0 min 0 UV-I 0 W/m 1,6 km/h (1 Bft)
30.01.2011 21:40 -3,7 C 89 % 1022,1 hPa 0,0 mm 0,0 km/h (0 Bft) N 0 0 min 0 UV-I 0 W/m 0,0 km/h (0 Bft)
30.01.2011 21:50 -3,7 C 89 % 1022,2 hPa 0,0 mm 0,0 km/h (0 Bft) N 0 0 min 0 UV-I 0 W/m 0,0 km/h (0 Bft)
30.01.2011 22:00 -3,8 C 89 % 1022,3 hPa 0,0 mm 0,0 km/h (0 Bft) N 0 0 min 0 UV-I 0 W/m 0,0 km/h (0 Bft)
30.01.2011 22:10 -4,0 C 89 % 1022,1 hPa 0,0 mm 0,0 km/h (0 Bft) O-NO 67 0 min 0 UV-I 0 W/m 1,6 km/h (1 Bft)
30.01.2011 22:20 -4,3 C 89 % 1022,2 hPa 0,0 mm 1,6 km/h (1 Bft) O-NO 67 0 min 0 UV-I 0 W/m 4,8 km/h (1 Bft)
30.01.2011 22:30 -4,2 C 89 % 1022,1 hPa 0,0 mm 0,0 km/h (0 Bft) N 0 0 min 0 UV-I 0 W/m 0,0 km/h (0 Bft)
30.01.2011 22:40 -4,3 C 89 % 1022,2 hPa 0,0 mm 0,0 km/h (0 Bft) O-NO 67 0 min 0 UV-I 0 W/m 1,6 km/h (1 Bft)
30.01.2011 22:50 -4,4 C 89 % 1022,2 hPa 0,0 mm 0,0 km/h (0 Bft) O-NO 67 0 min 0 UV-I 0 W/m 1,6 km/h (1 Bft)
30.01.2011 23:00 -4,4 C 89 % 1022,2 hPa 0,0 mm 0,0 km/h (0 Bft) N 0 0 min 0 UV-I 0 W/m 0,0 km/h (0 Bft)
30.01.2011 23:10 -4,6 C 89 % 1022,1 hPa 0,0 mm 0,0 km/h (0 Bft) O-NO 67 0 min 0 UV-I 0 W/m 1,6 km/h (1 Bft)
30.01.2011 23:20 -4,5 C 90 % 1022,1 hPa 0,0 mm 0,0 km/h (0 Bft) O-NO 67 0 min 0 UV-I 0 W/m 3,2 km/h (1 Bft)
30.01.2011 23:30 -4,6 C 89 % 1022,1 hPa 0,0 mm 0,0 km/h (0 Bft) O-NO 67 0 min 0 UV-I 0 W/m 3,2 km/h (1 Bft)
30.01.2011 23:40 -4,6 C 89 % 1022,1 hPa 0,0 mm 0,0 km/h (0 Bft) O-NO 67 0 min 0 UV-I 0 W/m 1,6 km/h (1 Bft)
30.01.2011 23:50 -4,6 C 89 % 1022,1 hPa 0,0 mm 0,0 km/h (0 Bft) N 0 0 min 0 UV-I 0 W/m 0,0 km/h (0 Bft)
_ Min-Zeit 08:40 14:40 02:50 - 00:00 - - - - - 01:40
Minimum _ -8,7 C 61 % 1020,0 hPa - 0,0 km/h (0 Bft) - - - - - 0,0 km/h (0 Bft)
_ Max-Zeit 14:30 09:40 22:00 10:50 14:40 - - 10:00 12:00 12:20 14:40
Maximum _ 2,7 C 90 % 1022,3 hPa 0,3 mm 3,2 km/h
O (1 Bft)
- - 10 min 1 UV-I 390 W/m 11,3 km/h
O-SO (2 Bft)
Durchschnitt _ -3,8 C 85 % 1021,1 hPa #0,3 mm 0,3 km/h (0 Bft) O-NO - #5:50 h 1 UV-I 203 W/m 2,6 km/h (1 Bft)